Time,TemperatureF,DewpointF,PressureIn,WindDirection,WindDirectionDegrees,WindSpeedMPH,WindSpeedGustMPH,Humidity,HourlyPrecipIn,Conditions,Clouds,dailyrainin,SolarRadiationWatts/m^2,SoftwareType,DateUTC
2013-11-14 00:01:00,30.1,27.0,30.44,ENE,61,1.0,1.0,88,0.00,,---,0.00,0.00,VWS V14.00,2013-11-14 06:01:00,
2013-11-14 00:06:00,30.2,27.1,30.43,ENE,61,1.0,1.0,88,0.00,,---,0.00,0.00,VWS V14.00,2013-11-14 06:06:00,
2013-11-14 00:11:00,30.2,27.1,30.44,ENE,61,1.0,1.0,88,0.00,,---,0.00,0.00,VWS V14.00,2013-11-14 06:11:00,
2013-11-14 00:16:00,30.2,27.4,30.44,ENE,61,0.0,1.0,89,0.00,,---,0.00,0.00,VWS V14.00,2013-11-14 06:16:00,
2013-11-14 00:21:00,30.2,27.4,30.43,ENE,61,1.0,1.0,89,0.00,,---,0.00,0.00,VWS V14.00,2013-11-14 06:21:00,
2013-11-14 00:26:00,30.2,27.4,30.43,ENE,61,1.0,1.0,89,0.00,,---,0.00,0.00,VWS V14.00,2013-11-14 06:26:00,
2013-11-14 00:31:00,30.1,27.3,30.43,ENE,61,0.0,0.0,89,0.00,,---,0.00,0.00,VWS V14.00,2013-11-14 06:31:00,
2013-11-14 00:36:00,30.0,26.9,30.43,ENE,61,0.0,0.0,88,0.00,,---,0.00,0.00,VWS V14.00,2013-11-14 06:36:00,
2013-11-14 00:41:00,29.8,26.7,30.43,ENE,61,0.0,0.0,88,0.00,,---,0.00,0.00,VWS V14.00,2013-11-14 06:41:00,
2013-11-14 00:46:00,29.7,26.6,30.42,ENE,61,0.0,0.0,88,0.00,,---,0.00,0.00,VWS V14.00,2013-11-14 06:46:00,
2013-11-14 00:51:00,29.6,26.5,30.42,ENE,61,0.0,0.0,88,0.00,,---,0.00,0.00,VWS V14.00,2013-11-14 06:51:00,
2013-11-14 00:56:00,29.4,26.3,30.42,ENE,61,0.0,0.0,88,0.00,,---,0.00,0.00,VWS V14.00,2013-11-14 06:56:00,
2013-11-14 01:01:00,29.3,26.2,30.42,ENE,61,1.0,1.0,88,0.00,,---,0.00,0.00,VWS V14.00,2013-11-14 07:01:00,
2013-11-14 01:06:00,29.2,26.1,30.42,ENE,61,0.0,1.0,88,0.00,,---,0.00,0.00,VWS V14.00,2013-11-14 07:06:00,
2013-11-14 01:11:00,29.2,26.1,30.42,ENE,61,1.0,1.0,88,0.00,,---,0.00,0.00,VWS V14.00,2013-11-14 07:11:00,
2013-11-14 01:16:00,29.3,26.5,30.42,ENE,61,1.0,2.0,89,0.00,,---,0.00,0.00,VWS V14.00,2013-11-14 07:16:00,
2013-11-14 01:21:00,29.4,26.6,30.42,ENE,61,1.0,1.0,89,0.00,,---,0.00,0.00,VWS V14.00,2013-11-14 07:21:00,
2013-11-14 01:26:00,29.4,26.6,30.42,ENE,61,1.0,1.0,89,0.00,,---,0.00,0.00,VWS V14.00,2013-11-14 07:26:00,
2013-11-14 01:31:00,29.5,26.7,30.42,ENE,61,0.0,1.0,89,0.00,,---,0.00,0.00,VWS V14.00,2013-11-14 07:31:00,
2013-11-14 01:36:00,29.5,26.7,30.42,ENE,61,0.0,0.0,89,0.00,,---,0.00,0.00,VWS V14.00,2013-11-14 07:36:00,
2013-11-14 01:41:00,29.5,26.7,30.42,ENE,61,0.0,0.0,89,0.00,,---,0.00,0.00,VWS V14.00,2013-11-14 07:41:00,
2013-11-14 01:46:00,29.4,26.6,30.42,ENE,61,0.0,0.0,89,0.00,,---,0.00,0.00,VWS V14.00,2013-11-14 07:46:00,
2013-11-14 01:51:00,29.3,26.5,30.42,ENE,61,1.0,1.0,89,0.00,,---,0.00,0.00,VWS V14.00,2013-11-14 07:51:00,
2013-11-14 01:56:00,29.2,26.4,30.42,ENE,61,0.0,2.0,89,0.00,,---,0.00,0.00,VWS V14.00,2013-11-14 07:56:00,
2013-11-14 02:01:00,29.2,26.4,30.42,ENE,61,0.0,0.0,89,0.00,,---,0.00,0.00,VWS V14.00,2013-11-14 08:01:00,
2013-11-14 02:06:00,29.1,26.3,30.42,ENE,61,0.0,0.0,89,0.00,,---,0.00,0.00,VWS V14.00,2013-11-14 08:06:00,
2013-11-14 02:11:00,29.0,26.2,30.42,ENE,61,0.0,0.0,89,0.00,,---,0.00,0.00,VWS V14.00,2013-11-14 08:11:00,
2013-11-14 02:16:00,28.9,26.1,30.41,ENE,61,0.0,0.0,89,0.00,,---,0.00,0.00,VWS V14.00,2013-11-14 08:16:00,
2013-11-14 02:21:00,28.8,26.0,30.41,ENE,61,0.0,1.0,89,0.00,,---,0.00,0.00,VWS V14.00,2013-11-14 08:21:00,
2013-11-14 02:26:00,28.7,25.9,30.41,ENE,61,0.0,0.0,89,0.00,,---,0.00,0.00,VWS V14.00,2013-11-14 08:26:00,
2013-11-14 02:31:00,28.5,25.7,30.41,ENE,61,0.0,0.0,89,0.00,,---,0.00,0.00,VWS V14.00,2013-11-14 08:31:00,
2013-11-14 02:36:00,28.4,25.6,30.42,ENE,61,0.0,0.0,89,0.00,,---,0.00,0.00,VWS V14.00,2013-11-14 08:36:00,
2013-11-14 02:41:00,28.3,25.5,30.41,ENE,61,0.0,0.0,89,0.00,,---,0.00,0.00,VWS V14.00,2013-11-14 08:41:00,
2013-11-14 02:46:00,28.1,25.3,30.41,ENE,61,0.0,0.0,89,0.00,,---,0.00,0.00,VWS V14.00,2013-11-14 08:46:00,
2013-11-14 02:51:00,27.9,24.8,30.41,ENE,61,0.0,0.0,88,0.00,,---,0.00,0.00,VWS V14.00,2013-11-14 08:51:00,
2013-11-14 02:56:00,27.8,25.0,30.41,ENE,61,0.0,0.0,89,0.00,,---,0.00,0.00,VWS V14.00,2013-11-14 08:56:00,
2013-11-14 03:01:00,27.7,24.9,30.41,ENE,61,0.0,0.0,89,0.00,,---,0.00,0.00,VWS V14.00,2013-11-14 09:01:00,
2013-11-14 03:06:00,27.6,24.8,30.41,ENE,61,0.0,0.0,89,0.00,,---,0.00,0.00,VWS V14.00,2013-11-14 09:06:00,
2013-11-14 03:11:00,27.5,24.7,30.41,ENE,61,1.0,1.0,89,0.00,,---,0.00,0.00,VWS V14.00,2013-11-14 09:11:00,
2013-11-14 03:16:00,27.5,24.7,30.41,ENE,61,0.0,1.0,89,0.00,,---,0.00,0.00,VWS V14.00,2013-11-14 09:16:00,
2013-11-14 03:21:00,27.5,24.7,30.40,ENE,61,0.0,1.0,89,0.00,,---,0.00,0.00,VWS V14.00,2013-11-14 09:21:00,
2013-11-14 03:26:00,27.5,24.7,30.41,ENE,61,1.0,1.0,89,0.00,,---,0.00,0.00,VWS V14.00,2013-11-14 09:26:00,
2013-11-14 03:31:00,27.5,24.7,30.40,ENE,61,0.0,1.0,89,0.00,,---,0.00,0.00,VWS V14.00,2013-11-14 09:31:00,
2013-11-14 03:36:00,27.4,24.6,30.40,ENE,61,0.0,0.0,89,0.00,,---,0.00,0.00,VWS V14.00,2013-11-14 09:36:00,
2013-11-14 03:41:00,27.4,24.6,30.40,ENE,61,0.0,0.0,89,0.00,,---,0.00,0.00,VWS V14.00,2013-11-14 09:41:00,
2013-11-14 03:46:00,27.3,24.5,30.40,ENE,61,0.0,0.0,89,0.00,,---,0.00,0.00,VWS V14.00,2013-11-14 09:46:00,
2013-11-14 03:51:00,27.2,24.4,30.40,ENE,61,0.0,0.0,89,0.00,,---,0.00,0.00,VWS V14.00,2013-11-14 09:51:00,
2013-11-14 03:56:00,27.1,24.3,30.40,ENE,61,0.0,0.0,89,0.00,,---,0.00,0.00,VWS V14.00,2013-11-14 09:56:00,
2013-11-14 04:01:00,27.0,24.2,30.40,ENE,61,0.0,0.0,89,0.00,,---,0.00,0.00,VWS V14.00,2013-11-14 10:01:00,
2013-11-14 04:06:00,26.9,24.1,30.40,ENE,61,0.0,0.0,89,0.00,,---,0.00,0.00,VWS V14.00,2013-11-14 10:06:00,
2013-11-14 04:11:00,26.8,24.0,30.40,ENE,61,0.0,0.0,89,0.00,,---,0.00,0.00,VWS V14.00,2013-11-14 10:11:00,
2013-11-14 04:16:00,26.7,23.9,30.40,ENE,61,0.0,0.0,89,0.00,,---,0.00,0.00,VWS V14.00,2013-11-14 10:16:00,
2013-11-14 04:21:00,26.6,23.8,30.40,ENE,61,0.0,0.0,89,0.00,,---,0.00,0.00,VWS V14.00,2013-11-14 10:21:00,
2013-11-14 04:26:00,26.6,23.8,30.40,ENE,61,0.0,0.0,89,0.00,,---,0.00,0.00,VWS V14.00,2013-11-14 10:26:00,
2013-11-14 04:31:00,26.6,23.8,30.40,ENE,61,0.0,0.0,89,0.00,,---,0.00,0.00,VWS V14.00,2013-11-14 10:31:00,
2013-11-14 04:36:00,26.6,23.8,30.40,ENE,61,0.0,0.0,89,0.00,,---,0.00,0.00,VWS V14.00,2013-11-14 10:36:00,
2013-11-14 04:41:00,26.6,23.8,30.40,ENE,61,0.0,0.0,89,0.00,,---,0.00,0.00,VWS V14.00,2013-11-14 10:41:00,
2013-11-14 04:46:00,26.7,24.2,30.40,ENE,61,0.0,0.0,90,0.00,,---,0.00,0.00,VWS V14.00,2013-11-14 10:46:00,
2013-11-14 04:51:00,26.7,24.2,30.40,ENE,61,0.0,0.0,90,0.00,,---,0.00,0.00,VWS V14.00,2013-11-14 10:51:00,
2013-11-14 04:56:00,26.6,24.1,30.40,ENE,61,0.0,0.0,90,0.00,,---,0.00,0.00,VWS V14.00,2013-11-14 10:56:00,
2013-11-14 05:01:00,26.6,24.1,30.39,ENE,61,0.0,0.0,90,0.00,,---,0.00,0.00,VWS V14.00,2013-11-14 11:01:00,
2013-11-14 05:06:00,26.4,23.6,30.39,ENE,61,0.0,0.0,89,0.00,,---,0.00,0.00,VWS V14.00,2013-11-14 11:06:00,
2013-11-14 05:11:00,26.2,23.4,30.39,ENE,61,0.0,0.0,89,0.00,,---,0.00,0.00,VWS V14.00,2013-11-14 11:11:00,
2013-11-14 05:16:00,26.1,23.3,30.39,ENE,61,0.0,0.0,89,0.00,,---,0.00,0.00,VWS V14.00,2013-11-14 11:16:00,
2013-11-14 05:21:00,26.0,23.2,30.40,ENE,61,0.0,0.0,89,0.00,,---,0.00,0.00,VWS V14.00,2013-11-14 11:21:00,
2013-11-14 05:26:00,25.9,23.1,30.40,ENE,61,0.0,0.0,89,0.00,,---,0.00,0.00,VWS V14.00,2013-11-14 11:26:00,
2013-11-14 05:31:00,25.7,22.9,30.39,ENE,61,0.0,0.0,89,0.00,,---,0.00,0.00,VWS V14.00,2013-11-14 11:31:00,
2013-11-14 05:36:00,25.8,23.0,30.39,ENE,61,0.0,0.0,89,0.00,,---,0.00,0.00,VWS V14.00,2013-11-14 11:36:00,
2013-11-14 05:41:00,25.7,22.9,30.39,ENE,61,0.0,0.0,89,0.00,,---,0.00,0.00,VWS V14.00,2013-11-14 11:41:00,
2013-11-14 05:46:00,25.7,22.9,30.39,ENE,61,0.0,0.0,89,0.00,,---,0.00,0.00,VWS V14.00,2013-11-14 11:46:00,
2013-11-14 05:51:00,25.5,22.7,30.39,ENE,61,0.0,0.0,89,0.00,,---,0.00,0.00,VWS V14.00,2013-11-14 11:51:00,
2013-11-14 05:56:00,25.4,22.6,30.39,ENE,61,0.0,0.0,89,0.00,,---,0.00,0.00,VWS V14.00,2013-11-14 11:56:00,
2013-11-14 06:01:00,25.3,22.5,30.39,ENE,61,0.0,0.0,89,0.00,,---,0.00,0.00,VWS V14.00,2013-11-14 12:01:00,
2013-11-14 06:06:00,25.2,22.4,30.39,ENE,61,0.0,0.0,89,0.00,,---,0.00,0.00,VWS V14.00,2013-11-14 12:06:00,
2013-11-14 06:11:00,25.2,22.4,30.40,ENE,61,0.0,0.0,89,0.00,,---,0.00,0.00,VWS V14.00,2013-11-14 12:11:00,
2013-11-14 06:16:00,25.1,22.3,30.40,ENE,61,0.0,0.0,89,0.00,,---,0.00,0.00,VWS V14.00,2013-11-14 12:16:00,
2013-11-14 06:21:00,25.1,22.3,30.40,ENE,61,0.0,0.0,89,0.00,,---,0.00,0.00,VWS V14.00,2013-11-14 12:21:00,
2013-11-14 06:26:00,25.0,22.2,30.39,ENE,61,0.0,0.0,89,0.00,,---,0.00,0.00,VWS V14.00,2013-11-14 12:26:00,
2013-11-14 06:31:00,25.0,22.2,30.39,ENE,61,0.0,0.0,89,0.00,,---,0.00,0.00,VWS V14.00,2013-11-14 12:31:00,
2013-11-14 06:36:00,25.0,22.5,30.39,ENE,61,0.0,0.0,90,0.00,,---,0.00,0.00,VWS V14.00,2013-11-14 12:36:00,
2013-11-14 06:41:00,25.1,22.6,30.39,ENE,61,0.0,0.0,90,0.00,,---,0.00,7.00,VWS V14.00,2013-11-14 12:41:00,
2013-11-14 06:46:00,25.1,22.6,30.40,ENE,61,0.0,0.0,90,0.00,,---,0.00,9.00,VWS V14.00,2013-11-14 12:46:00,
2013-11-14 06:51:00,25.1,22.6,30.39,ENE,61,0.0,0.0,90,0.00,,---,0.00,12.00,VWS V14.00,2013-11-14 12:51:00,
2013-11-14 06:56:00,25.3,22.8,30.39,ENE,61,0.0,0.0,90,0.00,,---,0.00,16.00,VWS V14.00,2013-11-14 12:56:00,
2013-11-14 07:01:00,25.6,23.1,30.39,ENE,61,0.0,0.0,90,0.00,,---,0.00,19.00,VWS V14.00,2013-11-14 13:01:00,
2013-11-14 07:06:00,25.8,23.3,30.40,ENE,61,0.0,0.0,90,0.00,,---,0.00,25.00,VWS V14.00,2013-11-14 13:06:00,
2013-11-14 07:11:00,26.1,23.6,30.40,ENE,61,0.0,0.0,90,0.00,,---,0.00,32.00,VWS V14.00,2013-11-14 13:11:00,
2013-11-14 07:16:00,26.7,24.4,30.40,ENE,61,0.0,0.0,91,0.00,,---,0.00,40.00,VWS V14.00,2013-11-14 13:16:00,
2013-11-14 07:21:00,27.7,25.4,30.40,ENE,61,1.0,1.0,91,0.00,,---,0.00,47.00,VWS V14.00,2013-11-14 13:21:00,
2013-11-14 07:26:00,29.2,26.9,30.40,ENE,61,0.0,0.0,91,0.00,,---,0.00,83.00,VWS V14.00,2013-11-14 13:26:00,
2013-11-14 07:31:00,30.0,28.0,30.40,ENE,61,0.0,0.0,92,0.00,,---,0.00,104.00,VWS V14.00,2013-11-14 13:31:00,
2013-11-14 07:36:00,30.5,28.2,30.40,ENE,61,0.0,0.0,91,0.00,,---,0.00,121.00,VWS V14.00,2013-11-14 13:36:00,
2013-11-14 07:41:00,31.0,28.7,30.40,ENE,61,0.0,0.0,91,0.00,,---,0.00,137.00,VWS V14.00,2013-11-14 13:41:00,
2013-11-14 07:46:00,31.6,29.3,30.41,ENE,61,0.0,0.0,91,0.00,,---,0.00,163.00,VWS V14.00,2013-11-14 13:46:00,
2013-11-14 07:51:00,32.1,29.8,30.40,ENE,61,1.0,2.0,91,0.00,,---,0.00,193.00,VWS V14.00,2013-11-14 13:51:00,
2013-11-14 07:56:00,32.7,30.4,30.41,ENE,61,1.0,1.0,91,0.00,,---,0.00,220.00,VWS V14.00,2013-11-14 13:56:00,
2013-11-14 08:01:00,33.2,30.9,30.41,ENE,61,1.0,1.0,91,0.00,,---,0.00,227.00,VWS V14.00,2013-11-14 14:01:00,
2013-11-14 08:06:00,34.0,31.6,30.40,ENE,62,1.0,2.0,91,0.00,,---,0.00,232.00,VWS V14.00,2013-11-14 14:06:00,
2013-11-14 08:11:00,34.7,32.3,30.40,ENE,62,2.0,2.0,91,0.00,,---,0.00,248.00,VWS V14.00,2013-11-14 14:11:00,
2013-11-14 08:16:00,35.4,32.8,30.40,ENE,65,1.0,2.0,90,0.00,,---,0.00,262.00,VWS V14.00,2013-11-14 14:16:00,
2013-11-14 08:21:00,36.1,32.9,30.40,ENE,70,2.0,3.0,88,0.00,,---,0.00,278.00,VWS V14.00,2013-11-14 14:21:00,
2013-11-14 08:26:00,36.9,33.1,30.40,ENE,70,2.0,2.0,86,0.00,,---,0.00,292.00,VWS V14.00,2013-11-14 14:26:00,
2013-11-14 08:31:00,37.7,33.3,30.40,ENE,70,2.0,2.0,84,0.00,,---,0.00,304.00,VWS V14.00,2013-11-14 14:31:00,
2013-11-14 08:36:00,38.4,33.4,30.40,ENE,71,1.0,1.0,82,0.00,,---,0.00,318.00,VWS V14.00,2013-11-14 14:36:00,
2013-11-14 08:41:00,39.2,33.6,30.40,ENE,74,1.0,2.0,80,0.00,,---,0.00,332.00,VWS V14.00,2013-11-14 14:41:00,
2013-11-14 08:46:00,39.8,34.1,30.40,East,90,2.0,2.0,80,0.00,,---,0.00,348.00,VWS V14.00,2013-11-14 14:46:00,
2013-11-14 08:47:00,40.0,33.7,30.40,ESE,111,2.0,2.0,78,0.00,,---,0.00,350.00,VWS V14.00,2013-11-14 14:47:00,
2013-11-14 08:52:00,40.7,33.4,30.40,ESE,115,3.0,3.0,75,0.00,,---,0.00,366.00,VWS V14.00,2013-11-14 14:52:00,
2013-11-14 08:57:00,41.3,33.7,30.40,ESE,113,3.0,4.0,74,0.00,,---,0.00,388.00,VWS V14.00,2013-11-14 14:57:00,
2013-11-14 09:02:00,41.8,33.8,30.40,ESE,104,3.0,3.0,73,0.00,,---,0.00,406.00,VWS V14.00,2013-11-14 15:02:00,
2013-11-14 09:07:00,42.2,34.5,30.40,NE,46,3.0,4.0,74,0.00,,---,0.00,420.00,VWS V14.00,2013-11-14 15:07:00,
2013-11-14 09:12:00,42.7,35.0,30.40,East,94,2.0,2.0,74,0.00,,---,0.00,434.00,VWS V14.00,2013-11-14 15:12:00,
2013-11-14 09:17:00,43.4,33.9,30.39,ESE,117,3.0,4.0,69,0.00,,---,0.00,446.00,VWS V14.00,2013-11-14 15:17:00,
2013-11-14 09:22:00,44.2,34.0,30.39,East,91,2.0,3.0,67,0.00,,---,0.00,459.00,VWS V14.00,2013-11-14 15:22:00,
2013-11-14 09:27:00,44.8,34.2,30.39,ENE,75,2.0,3.0,66,0.00,,---,0.00,473.00,VWS V14.00,2013-11-14 15:27:00,
2013-11-14 09:32:00,45.4,33.6,30.39,East,98,2.0,3.0,63,0.00,,---,0.00,483.00,VWS V14.00,2013-11-14 15:32:00,
2013-11-14 09:37:00,46.0,33.3,30.39,East,84,1.0,1.0,61,0.00,,---,0.00,494.00,VWS V14.00,2013-11-14 15:37:00,
2013-11-14 09:42:00,46.7,33.6,30.39,SE,126,2.0,3.0,60,0.00,,---,0.00,508.00,VWS V14.00,2013-11-14 15:42:00,
2013-11-14 09:47:00,47.4,31.6,30.39,ESE,121,3.0,3.0,54,0.00,,---,0.00,517.00,VWS V14.00,2013-11-14 15:47:00,
2013-11-14 09:52:00,48.1,31.3,30.39,ENE,74,1.0,2.0,52,0.00,,---,0.00,529.00,VWS V14.00,2013-11-14 15:52:00,
2013-11-14 09:57:00,48.8,31.5,30.38,SE,144,5.0,5.0,51,0.00,,---,0.00,540.00,VWS V14.00,2013-11-14 15:57:00,
2013-11-14 10:02:00,49.4,30.5,30.38,East,92,7.0,7.0,48,0.00,,---,0.00,550.00,VWS V14.00,2013-11-14 16:02:00,
2013-11-14 10:07:00,49.8,29.9,30.38,ESE,105,4.0,8.0,46,0.00,,---,0.00,561.00,VWS V14.00,2013-11-14 16:07:00,
2013-11-14 10:12:00,50.2,29.7,30.38,SSE,148,2.0,3.0,45,0.00,,---,0.00,570.00,VWS V14.00,2013-11-14 16:12:00,
2013-11-14 10:17:00,50.9,29.8,30.38,SE,142,3.0,5.0,44,0.00,,---,0.00,577.00,VWS V14.00,2013-11-14 16:17:00,
2013-11-14 10:22:00,51.4,29.1,30.38,SSE,156,4.0,6.0,42,0.00,,---,0.00,587.00,VWS V14.00,2013-11-14 16:22:00,
2013-11-14 10:27:00,52.0,30.2,30.37,SE,132,6.0,7.0,43,0.00,,---,0.00,592.00,VWS V14.00,2013-11-14 16:27:00,
2013-11-14 10:31:00,52.5,29.5,30.37,ESE,110,5.0,5.0,41,0.00,,---,0.00,603.00,VWS V14.00,2013-11-14 16:31:00,
2013-11-14 10:36:00,53.0,29.3,30.37,ESE,114,3.0,4.0,40,0.00,,---,0.00,610.00,VWS V14.00,2013-11-14 16:36:00,
2013-11-14 10:41:00,53.4,28.5,30.37,SE,136,4.0,5.0,38,0.00,,---,0.00,617.00,VWS V14.00,2013-11-14 16:41:00,
2013-11-14 10:46:00,53.9,27.6,30.36,East,82,3.0,3.0,36,0.00,,---,0.00,624.00,VWS V14.00,2013-11-14 16:46:00,
2013-11-14 10:51:00,54.1,28.4,30.36,ENE,76,7.0,7.0,37,0.00,,---,0.00,629.00,VWS V14.00,2013-11-14 16:51:00,
2013-11-14 10:56:00,54.4,28.7,30.35,SE,140,3.0,3.0,37,0.00,,---,0.00,633.00,VWS V14.00,2013-11-14 16:56:00,
2013-11-14 11:01:00,54.6,26.8,30.35,ESE,115,5.0,7.0,34,0.00,,---,0.00,642.00,VWS V14.00,2013-11-14 17:01:00,
2013-11-14 11:06:00,54.9,27.8,30.34,SSE,163,2.0,3.0,35,0.00,,---,0.00,645.00,VWS V14.00,2013-11-14 17:06:00,
2013-11-14 11:11:00,55.5,27.6,30.34,SSE,164,4.0,4.0,34,0.00,,---,0.00,649.00,VWS V14.00,2013-11-14 17:11:00,
2013-11-14 11:16:00,55.9,29.4,30.33,SE,126,3.0,4.0,36,0.00,,---,0.00,654.00,VWS V14.00,2013-11-14 17:16:00,
2013-11-14 11:21:00,56.0,26.6,30.33,East,92,7.0,8.0,32,0.00,,---,0.00,657.00,VWS V14.00,2013-11-14 17:21:00,
2013-11-14 11:26:00,55.8,26.4,30.33,SE,130,3.0,4.0,32,0.00,,---,0.00,663.00,VWS V14.00,2013-11-14 17:26:00,
2013-11-14 11:31:00,56.0,26.6,30.32,East,86,3.0,5.0,32,0.00,,---,0.00,663.00,VWS V14.00,2013-11-14 17:31:00,
2013-11-14 11:36:00,56.2,26.0,30.32,ESE,121,3.0,7.0,31,0.00,,---,0.00,668.00,VWS V14.00,2013-11-14 17:36:00,
2013-11-14 11:41:00,56.4,26.9,30.31,WSW,257,1.0,2.0,32,0.00,,---,0.00,666.00,VWS V14.00,2013-11-14 17:41:00,
2013-11-14 11:46:00,56.3,25.3,30.31,ENE,73,2.0,4.0,30,0.00,,---,0.00,668.00,VWS V14.00,2013-11-14 17:46:00,
2013-11-14 11:52:00,56.4,26.9,30.31,South,175,1.0,2.0,32,0.00,,---,0.00,668.00,VWS V14.00,2013-11-14 17:52:00,
2013-11-14 11:57:00,56.8,27.3,30.30,South,175,5.0,6.0,32,0.00,,---,0.00,668.00,VWS V14.00,2013-11-14 17:57:00,
2013-11-14 12:02:00,57.2,26.1,30.30,SSE,150,2.0,4.0,30,0.00,,---,0.00,668.00,VWS V14.00,2013-11-14 18:02:00,
2013-11-14 12:06:00,57.5,25.5,30.30,ESE,110,1.0,2.0,29,0.00,,---,0.00,668.00,VWS V14.00,2013-11-14 18:06:00,
2013-11-14 12:11:00,57.7,26.5,30.29,SE,140,5.0,7.0,30,0.00,,---,0.00,668.00,VWS V14.00,2013-11-14 18:11:00,
2013-11-14 12:16:00,58.0,26.8,30.28,SE,132,5.0,6.0,30,0.00,,---,0.00,670.00,VWS V14.00,2013-11-14 18:16:00,
2013-11-14 12:21:00,57.9,26.7,30.28,ESE,115,5.0,5.0,30,0.00,,---,0.00,664.00,VWS V14.00,2013-11-14 18:21:00,
2013-11-14 12:26:00,57.9,24.1,30.28,East,92,2.0,5.0,27,0.00,,---,0.00,663.00,VWS V14.00,2013-11-14 18:26:00,
2013-11-14 12:31:00,57.9,25.9,30.27,ESE,109,4.0,8.0,29,0.00,,---,0.00,659.00,VWS V14.00,2013-11-14 18:31:00,
2013-11-14 12:36:00,57.9,25.9,30.27,ENE,61,4.0,4.0,29,0.00,,---,0.00,656.00,VWS V14.00,2013-11-14 18:36:00,
2013-11-14 12:41:00,58.1,27.6,30.27,ESE,111,5.0,5.0,31,0.00,,---,0.00,650.00,VWS V14.00,2013-11-14 18:41:00,
2013-11-14 12:46:00,58.2,27.7,30.26,SE,142,3.0,3.0,31,0.00,,---,0.00,645.00,VWS V14.00,2013-11-14 18:46:00,
2013-11-14 12:51:00,58.4,27.1,30.26,SE,132,5.0,5.0,30,0.00,,---,0.00,643.00,VWS V14.00,2013-11-14 18:51:00,
2013-11-14 12:56:00,58.6,25.6,30.26,ESE,107,9.0,9.0,28,0.00,,---,0.00,636.00,VWS V14.00,2013-11-14 18:56:00,
2013-11-14 13:01:00,58.8,27.5,30.26,ESE,115,4.0,8.0,30,0.00,,---,0.00,633.00,VWS V14.00,2013-11-14 19:01:00,
2013-11-14 13:06:00,59.0,26.8,30.26,SSW,196,5.0,7.0,29,0.00,,---,0.00,624.00,VWS V14.00,2013-11-14 19:06:00,
2013-11-14 13:11:00,59.4,26.3,30.25,SW,224,3.0,4.0,28,0.00,,---,0.00,621.00,VWS V14.00,2013-11-14 19:11:00,
2013-11-14 13:16:00,59.6,28.1,30.25,SSE,168,3.0,5.0,30,0.00,,---,0.00,612.00,VWS V14.00,2013-11-14 19:16:00,
2013-11-14 13:21:00,60.0,29.3,30.25,SE,125,3.0,3.0,31,0.00,,---,0.00,605.00,VWS V14.00,2013-11-14 19:21:00,
2013-11-14 13:26:00,60.0,28.5,30.24,SSE,156,6.0,6.0,30,0.00,,---,0.00,599.00,VWS V14.00,2013-11-14 19:26:00,
2013-11-14 13:31:00,60.0,29.3,30.24,SSE,150,8.0,11.0,31,0.00,,---,0.00,589.00,VWS V14.00,2013-11-14 19:31:00,
2013-11-14 13:36:00,59.8,28.3,30.24,SSE,151,6.0,8.0,30,0.00,,---,0.00,584.00,VWS V14.00,2013-11-14 19:36:00,
2013-11-14 13:41:00,59.6,27.3,30.24,South,173,6.0,6.0,29,0.00,,---,0.00,573.00,VWS V14.00,2013-11-14 19:41:00,
2013-11-14 13:46:00,59.7,28.2,30.23,South,171,4.0,4.0,30,0.00,,---,0.00,563.00,VWS V14.00,2013-11-14 19:46:00,
2013-11-14 13:51:00,59.8,26.6,30.23,South,178,2.0,2.0,28,0.00,,---,0.00,555.00,VWS V14.00,2013-11-14 19:51:00,
2013-11-14 13:56:00,60.1,26.9,30.23,SSE,150,3.0,3.0,28,0.00,,---,0.00,545.00,VWS V14.00,2013-11-14 19:56:00,
2013-11-14 14:01:00,60.3,27.1,30.23,SE,144,5.0,6.0,28,0.00,,---,0.00,538.00,VWS V14.00,2013-11-14 20:01:00,
2013-11-14 14:06:00,60.3,26.2,30.23,SSE,159,2.0,3.0,27,0.00,,---,0.00,519.00,VWS V14.00,2013-11-14 20:06:00,
2013-11-14 14:11:00,60.4,27.2,30.23,ESE,113,3.0,4.0,28,0.00,,---,0.00,520.00,VWS V14.00,2013-11-14 20:11:00,
2013-11-14 14:16:00,60.1,26.9,30.22,East,88,5.0,6.0,28,0.00,,---,0.00,348.00,VWS V14.00,2013-11-14 20:16:00,
2013-11-14 14:21:00,59.7,26.6,30.22,ESE,113,5.0,5.0,28,0.00,,---,0.00,404.00,VWS V14.00,2013-11-14 20:21:00,
2013-11-14 14:26:00,59.8,26.6,30.21,East,88,2.0,3.0,28,0.00,,---,0.00,490.00,VWS V14.00,2013-11-14 20:26:00,
2013-11-14 14:31:00,60.0,28.5,30.21,South,190,1.0,2.0,30,0.00,,---,0.00,469.00,VWS V14.00,2013-11-14 20:31:00,
2013-11-14 14:36:00,60.4,27.2,30.22,SSE,159,3.0,4.0,28,0.00,,---,0.00,432.00,VWS V14.00,2013-11-14 20:36:00,
2013-11-14 14:41:00,60.7,27.4,30.22,SSE,160,3.0,3.0,28,0.00,,---,0.00,339.00,VWS V14.00,2013-11-14 20:41:00,
2013-11-14 14:46:00,60.8,26.6,30.22,ESE,121,5.0,7.0,27,0.00,,---,0.00,432.00,VWS V14.00,2013-11-14 20:46:00,
2013-11-14 14:51:00,60.7,26.5,30.22,ESE,103,5.0,5.0,27,0.00,,---,0.00,418.00,VWS V14.00,2013-11-14 20:51:00,
2013-11-14 14:56:00,60.7,27.4,30.22,SE,140,4.0,5.0,28,0.00,,---,0.00,390.00,VWS V14.00,2013-11-14 20:56:00,
2013-11-14 15:01:00,60.7,27.4,30.22,SSE,165,3.0,3.0,28,0.00,,---,0.00,221.00,VWS V14.00,2013-11-14 21:01:00,
2013-11-14 15:06:00,60.6,28.2,30.22,SSE,161,3.0,4.0,29,0.00,,---,0.00,149.00,VWS V14.00,2013-11-14 21:06:00,
2013-11-14 15:11:00,60.3,27.1,30.22,SE,142,2.0,2.0,28,0.00,,---,0.00,158.00,VWS V14.00,2013-11-14 21:11:00,
2013-11-14 15:16:00,60.0,26.8,30.20,ENE,67,2.0,2.0,28,0.00,,---,0.00,320.00,VWS V14.00,2013-11-14 21:16:00,
2013-11-14 15:21:00,59.7,28.2,30.20,East,92,5.0,5.0,30,0.00,,---,0.00,139.00,VWS V14.00,2013-11-14 21:21:00,
2013-11-14 15:26:00,59.3,29.5,30.20,SE,137,5.0,5.0,32,0.00,,---,0.00,141.00,VWS V14.00,2013-11-14 21:26:00,
2013-11-14 15:31:00,59.0,28.4,30.20,ESE,107,3.0,3.0,31,0.00,,---,0.00,132.00,VWS V14.00,2013-11-14 21:31:00,
2013-11-14 15:36:00,58.8,29.0,30.20,ESE,119,3.0,3.0,32,0.00,,---,0.00,97.00,VWS V14.00,2013-11-14 21:36:00,
2013-11-14 15:41:00,58.6,29.6,30.20,SE,126,3.0,3.0,33,0.00,,---,0.00,104.00,VWS V14.00,2013-11-14 21:41:00,
2013-11-14 15:46:00,58.3,31.5,30.20,ESE,116,3.0,3.0,36,0.00,,---,0.00,114.00,VWS V14.00,2013-11-14 21:46:00,
2013-11-14 15:51:00,58.1,29.9,30.19,ESE,117,2.0,3.0,34,0.00,,---,0.00,102.00,VWS V14.00,2013-11-14 21:51:00,
2013-11-14 15:56:00,57.8,30.4,30.19,ESE,117,1.0,1.0,35,0.00,,---,0.00,95.00,VWS V14.00,2013-11-14 21:56:00,
2013-11-14 16:01:00,57.6,30.2,30.19,ESE,111,2.0,2.0,35,0.00,,---,0.00,93.00,VWS V14.00,2013-11-14 22:01:00,
2013-11-14 16:06:00,57.3,30.6,30.18,ESE,104,2.0,3.0,36,0.00,,---,0.00,81.00,VWS V14.00,2013-11-14 22:06:00,
2013-11-14 16:11:00,57.2,31.8,30.18,ESE,102,2.0,2.0,38,0.00,,---,0.00,74.00,VWS V14.00,2013-11-14 22:11:00,
2013-11-14 16:16:00,57.0,32.3,30.18,ESE,102,0.0,1.0,39,0.00,,---,0.00,76.00,VWS V14.00,2013-11-14 22:16:00,
2013-11-14 16:21:00,56.9,31.6,30.19,ESE,102,1.0,1.0,38,0.00,,---,0.00,63.00,VWS V14.00,2013-11-14 22:21:00,
2013-11-14 16:26:00,56.7,32.0,30.18,ESE,102,1.0,2.0,39,0.00,,---,0.00,60.00,VWS V14.00,2013-11-14 22:26:00,
2013-11-14 16:31:00,56.6,33.2,30.18,ESE,103,1.0,2.0,41,0.00,,---,0.00,62.00,VWS V14.00,2013-11-14 22:31:00,
2013-11-14 16:36:00,56.5,33.1,30.18,ESE,103,2.0,2.0,41,0.00,,---,0.00,39.00,VWS V14.00,2013-11-14 22:36:00,
2013-11-14 16:41:00,56.4,33.0,30.19,ESE,103,1.0,2.0,41,0.00,,---,0.00,32.00,VWS V14.00,2013-11-14 22:41:00,
2013-11-14 16:46:00,56.3,32.9,30.19,ESE,103,1.0,1.0,41,0.00,,---,0.00,21.00,VWS V14.00,2013-11-14 22:46:00,
2013-11-14 16:51:00,56.1,33.9,30.18,ESE,103,1.0,1.0,43,0.00,,---,0.00,16.00,VWS V14.00,2013-11-14 22:51:00,
2013-11-14 16:56:00,55.9,33.8,30.18,ESE,103,0.0,0.0,43,0.00,,---,0.00,11.00,VWS V14.00,2013-11-14 22:56:00,
2013-11-14 17:01:00,55.7,33.0,30.18,ESE,103,0.0,0.0,42,0.00,,---,0.00,5.00,VWS V14.00,2013-11-14 23:01:00,
2013-11-14 17:06:00,55.4,33.3,30.18,ESE,103,0.0,0.0,43,0.00,,---,0.00,0.00,VWS V14.00,2013-11-14 23:06:00,
2013-11-14 17:11:00,55.0,33.5,30.18,ESE,103,0.0,0.0,44,0.00,,---,0.00,0.00,VWS V14.00,2013-11-14 23:11:00,
2013-11-14 17:16:00,54.6,33.1,30.18,ESE,103,0.0,0.0,44,0.00,,---,0.00,0.00,VWS V14.00,2013-11-14 23:16:00,
2013-11-14 17:21:00,54.0,33.7,30.17,ESE,103,2.0,2.0,46,0.00,,---,0.00,0.00,VWS V14.00,2013-11-14 23:21:00,
2013-11-14 17:26:00,53.0,34.9,30.17,ESE,103,0.0,1.0,50,0.00,,---,0.00,0.00,VWS V14.00,2013-11-14 23:26:00,
2013-11-14 17:31:00,52.6,35.5,30.18,ESE,103,0.0,0.0,52,0.00,,---,0.00,0.00,VWS V14.00,2013-11-14 23:31:00,
2013-11-14 17:36:00,52.2,35.1,30.18,ESE,103,1.0,2.0,52,0.00,,---,0.00,0.00,VWS V14.00,2013-11-14 23:36:00,
2013-11-14 17:41:00,51.6,34.1,30.18,ESE,103,0.0,1.0,51,0.00,,---,0.00,0.00,VWS V14.00,2013-11-14 23:41:00,
2013-11-14 17:46:00,51.4,34.9,30.18,ESE,103,0.0,1.0,53,0.00,,---,0.00,0.00,VWS V14.00,2013-11-14 23:46:00,
2013-11-14 17:51:00,51.2,34.7,30.17,ESE,103,0.0,0.0,53,0.00,,---,0.00,0.00,VWS V14.00,2013-11-14 23:51:00,
2013-11-14 17:56:00,50.7,35.6,30.17,ESE,103,0.0,1.0,56,0.00,,---,0.00,0.00,VWS V14.00,2013-11-14 23:56:00,
2013-11-14 18:01:00,50.5,35.8,30.17,ESE,103,0.0,0.0,57,0.00,,---,0.00,0.00,VWS V14.00,2013-11-15 00:01:00,
2013-11-14 18:06:00,49.9,37.0,30.16,ESE,103,1.0,1.0,61,0.00,,---,0.00,0.00,VWS V14.00,2013-11-15 00:06:00,
2013-11-14 18:11:00,49.3,36.4,30.16,ESE,103,0.0,1.0,61,0.00,,---,0.00,0.00,VWS V14.00,2013-11-15 00:11:00,
2013-11-14 18:16:00,49.1,36.2,30.17,ESE,103,0.0,1.0,61,0.00,,---,0.00,0.00,VWS V14.00,2013-11-15 00:16:00,
2013-11-14 18:21:00,48.8,36.4,30.16,ESE,103,1.0,1.0,62,0.00,,---,0.00,0.00,VWS V14.00,2013-11-15 00:21:00,
2013-11-14 18:26:00,48.6,37.0,30.17,ESE,103,0.0,0.0,64,0.00,,---,0.00,0.00,VWS V14.00,2013-11-15 00:26:00,
2013-11-14 18:31:00,48.4,36.4,30.17,ESE,103,1.0,2.0,63,0.00,,---,0.00,0.00,VWS V14.00,2013-11-15 00:31:00,
2013-11-14 18:36:00,48.3,36.3,30.16,ESE,103,1.0,1.0,63,0.00,,---,0.00,0.00,VWS V14.00,2013-11-15 00:36:00,
2013-11-14 18:41:00,48.2,37.4,30.16,ESE,103,1.0,1.0,66,0.00,,---,0.00,0.00,VWS V14.00,2013-11-15 00:41:00,
2013-11-14 18:46:00,48.0,37.2,30.16,ESE,103,1.0,2.0,66,0.00,,---,0.00,0.00,VWS V14.00,2013-11-15 00:46:00,
2013-11-14 18:51:00,47.6,36.4,30.16,ESE,103,1.0,2.0,65,0.00,,---,0.00,0.00,VWS V14.00,2013-11-15 00:51:00,
2013-11-14 18:56:00,47.4,36.6,30.16,ESE,103,0.0,0.0,66,0.00,,---,0.00,0.00,VWS V14.00,2013-11-15 00:56:00,
2013-11-14 19:01:00,47.3,36.5,30.16,ESE,103,0.0,0.0,66,0.00,,---,0.00,0.00,VWS V14.00,2013-11-15 01:01:00,
2013-11-14 19:06:00,47.2,36.4,30.17,ESE,103,0.0,1.0,66,0.00,,---,0.00,0.00,VWS V14.00,2013-11-15 01:06:00,
2013-11-14 19:11:00,47.0,36.6,30.17,ESE,103,1.0,2.0,67,0.00,,---,0.00,0.00,VWS V14.00,2013-11-15 01:11:00,
2013-11-14 19:16:00,46.9,37.3,30.17,ESE,103,0.0,1.0,69,0.00,,---,0.00,0.00,VWS V14.00,2013-11-15 01:16:00,
2013-11-14 19:21:00,46.9,37.3,30.17,ESE,103,0.0,0.0,69,0.00,,---,0.00,0.00,VWS V14.00,2013-11-15 01:21:00,
2013-11-14 19:26:00,46.8,37.2,30.17,ESE,103,0.0,0.0,69,0.00,,---,0.00,0.00,VWS V14.00,2013-11-15 01:26:00,
2013-11-14 19:31:00,46.7,37.5,30.17,ESE,103,1.0,1.0,70,0.00,,---,0.00,0.00,VWS V14.00,2013-11-15 01:31:00,
2013-11-14 19:36:00,46.6,37.3,30.17,ESE,103,1.0,1.0,70,0.00,,---,0.00,0.00,VWS V14.00,2013-11-15 01:36:00,
2013-11-14 19:41:00,46.6,37.3,30.17,ESE,103,1.0,1.0,70,0.00,,---,0.00,0.00,VWS V14.00,2013-11-15 01:41:00,
2013-11-14 19:46:00,46.5,37.6,30.16,ESE,103,0.0,1.0,71,0.00,,---,0.00,0.00,VWS V14.00,2013-11-15 01:46:00,
2013-11-14 19:51:00,46.3,37.4,30.17,ESE,103,1.0,1.0,71,0.00,,---,0.00,0.00,VWS V14.00,2013-11-15 01:51:00,
2013-11-14 19:56:00,46.2,37.7,30.17,ESE,103,0.0,0.0,72,0.00,,---,0.00,0.00,VWS V14.00,2013-11-15 01:56:00,
2013-11-14 20:01:00,46.2,38.0,30.17,ESE,103,0.0,0.0,73,0.00,,---,0.00,0.00,VWS V14.00,2013-11-15 02:01:00,
2013-11-14 20:06:00,46.1,37.9,30.17,ESE,103,0.0,0.0,73,0.00,,---,0.00,0.00,VWS V14.00,2013-11-15 02:06:00,
2013-11-14 20:11:00,46.0,37.8,30.16,ESE,103,0.0,0.0,73,0.00,,---,0.00,0.00,VWS V14.00,2013-11-15 02:11:00,
2013-11-14 20:16:00,45.9,37.8,30.17,ESE,103,0.0,0.0,73,0.00,,---,0.00,0.00,VWS V14.00,2013-11-15 02:16:00,
2013-11-14 20:21:00,45.9,37.4,30.17,ESE,103,0.0,0.0,72,0.00,,---,0.00,0.00,VWS V14.00,2013-11-15 02:21:00,
2013-11-14 20:26:00,45.8,37.3,30.17,ESE,103,0.0,0.0,72,0.00,,---,0.00,0.00,VWS V14.00,2013-11-15 02:26:00,
2013-11-14 20:31:00,45.8,37.7,30.17,ESE,103,1.0,2.0,73,0.00,,---,0.00,0.00,VWS V14.00,2013-11-15 02:31:00,
2013-11-14 20:36:00,45.9,38.1,30.17,ESE,103,0.0,1.0,74,0.00,,---,0.00,0.00,VWS V14.00,2013-11-15 02:36:00,
2013-11-14 20:41:00,45.9,38.1,30.17,ESE,103,0.0,0.0,74,0.00,,---,0.00,0.00,VWS V14.00,2013-11-15 02:41:00,
2013-11-14 20:46:00,45.8,38.0,30.18,ESE,103,0.0,1.0,74,0.00,,---,0.00,0.00,VWS V14.00,2013-11-15 02:46:00,
2013-11-14 20:51:00,45.8,38.0,30.18,ESE,103,0.0,0.0,74,0.00,,---,0.00,0.00,VWS V14.00,2013-11-15 02:51:00,
2013-11-14 20:56:00,45.9,38.1,30.17,ESE,103,1.0,1.0,74,0.00,,---,0.00,0.00,VWS V14.00,2013-11-15 02:56:00,
2013-11-14 21:01:00,45.9,38.1,30.18,ESE,103,1.0,1.0,74,0.00,,---,0.00,0.00,VWS V14.00,2013-11-15 03:01:00,
2013-11-14 21:06:00,46.0,38.5,30.17,ESE,103,0.0,0.0,75,0.00,,---,0.00,0.00,VWS V14.00,2013-11-15 03:06:00,
2013-11-14 21:11:00,46.0,38.9,30.17,ESE,103,0.0,0.0,76,0.00,,---,0.00,0.00,VWS V14.00,2013-11-15 03:11:00,
2013-11-14 21:16:00,46.0,38.9,30.18,ESE,103,0.0,0.0,76,0.00,,---,0.00,0.00,VWS V14.00,2013-11-15 03:16:00,
2013-11-14 21:21:00,46.0,38.9,30.18,ESE,103,0.0,0.0,76,0.00,,---,0.00,0.00,VWS V14.00,2013-11-15 03:21:00,
2013-11-14 21:26:00,46.0,38.9,30.19,ESE,103,0.0,0.0,76,0.00,,---,0.00,0.00,VWS V14.00,2013-11-15 03:26:00,
2013-11-14 21:31:00,46.1,39.0,30.19,ESE,103,0.0,1.0,76,0.00,,---,0.00,0.00,VWS V14.00,2013-11-15 03:31:00,
2013-11-14 21:36:00,46.2,39.4,30.19,ESE,103,1.0,1.0,77,0.00,,---,0.00,0.00,VWS V14.00,2013-11-15 03:36:00,
2013-11-14 21:41:00,46.3,39.8,30.18,ESE,103,0.0,0.0,78,0.00,,---,0.00,0.00,VWS V14.00,2013-11-15 03:41:00,
2013-11-14 21:46:00,46.4,39.6,30.18,ESE,103,0.0,0.0,77,0.00,,---,0.00,0.00,VWS V14.00,2013-11-15 03:46:00,
2013-11-14 21:51:00,46.5,40.0,30.18,ESE,103,0.0,0.0,78,0.00,,---,0.00,0.00,VWS V14.00,2013-11-15 03:51:00,
2013-11-14 21:56:00,46.5,40.0,30.18,ESE,103,0.0,0.0,78,0.00,,---,0.00,0.00,VWS V14.00,2013-11-15 03:56:00,
2013-11-14 22:01:00,46.5,39.7,30.18,ESE,103,1.0,1.0,77,0.00,,---,0.00,0.00,VWS V14.00,2013-11-15 04:01:00,
2013-11-14 22:06:00,46.4,39.6,30.17,ESE,103,1.0,2.0,77,0.00,,---,0.00,0.00,VWS V14.00,2013-11-15 04:06:00,
2013-11-14 22:11:00,46.3,39.5,30.17,ESE,103,1.0,2.0,77,0.00,,---,0.00,0.00,VWS V14.00,2013-11-15 04:11:00,
2013-11-14 22:16:00,46.2,39.7,30.17,ESE,103,1.0,1.0,78,0.00,,---,0.00,0.00,VWS V14.00,2013-11-15 04:16:00,
2013-11-14 22:21:00,45.9,39.4,30.17,ESE,103,1.0,2.0,78,0.00,,---,0.00,0.00,VWS V14.00,2013-11-15 04:21:00,
2013-11-14 22:26:00,45.8,39.7,30.17,ESE,103,0.0,1.0,79,0.00,,---,0.00,0.00,VWS V14.00,2013-11-15 04:26:00,
2013-11-14 22:31:00,45.7,39.6,30.17,ESE,103,0.0,1.0,79,0.00,,---,0.00,0.00,VWS V14.00,2013-11-15 04:31:00,
2013-11-14 22:36:00,45.6,39.5,30.16,ESE,103,0.0,1.0,79,0.00,,---,0.00,0.00,VWS V14.00,2013-11-15 04:36:00,
2013-11-14 22:41:00,45.5,39.4,30.16,ESE,103,1.0,2.0,79,0.00,,---,0.00,0.00,VWS V14.00,2013-11-15 04:41:00,
2013-11-14 22:46:00,45.4,39.3,30.16,ESE,103,2.0,2.0,79,0.00,,---,0.00,0.00,VWS V14.00,2013-11-15 04:46:00,
2013-11-14 22:51:00,45.4,39.3,30.15,ESE,103,1.0,1.0,79,0.00,,---,0.00,0.00,VWS V14.00,2013-11-15 04:51:00,
2013-11-14 22:56:00,45.3,39.2,30.15,ESE,103,0.0,1.0,79,0.00,,---,0.00,0.00,VWS V14.00,2013-11-15 04:56:00,
2013-11-14 23:01:00,45.2,39.1,30.15,ESE,103,0.0,1.0,79,0.00,,---,0.00,0.00,VWS V14.00,2013-11-15 05:01:00,
2013-11-14 23:06:00,45.0,38.9,30.14,ESE,103,0.0,0.0,79,0.00,,---,0.00,0.00,VWS V14.00,2013-11-15 05:06:00,
2013-11-14 23:11:00,44.8,38.7,30.14,ESE,103,0.0,0.0,79,0.00,,---,0.00,0.00,VWS V14.00,2013-11-15 05:11:00,
2013-11-14 23:16:00,44.6,38.8,30.14,ESE,103,0.0,1.0,80,0.00,,---,0.00,0.00,VWS V14.00,2013-11-15 05:16:00,
2013-11-14 23:21:00,44.4,38.3,30.14,ESE,103,0.0,0.0,79,0.00,,---,0.00,0.00,VWS V14.00,2013-11-15 05:21:00,
2013-11-14 23:26:00,44.2,38.4,30.14,ESE,103,0.0,1.0,80,0.00,,---,0.00,0.00,VWS V14.00,2013-11-15 05:26:00,
2013-11-14 23:31:00,44.0,38.2,30.14,ESE,103,0.0,0.0,80,0.00,,---,0.00,0.00,VWS V14.00,2013-11-15 05:31:00,
2013-11-14 23:36:00,43.9,38.1,30.13,ESE,103,0.0,0.0,80,0.00,,---,0.00,0.00,VWS V14.00,2013-11-15 05:36:00,
2013-11-14 23:41:00,43.7,38.3,30.13,ESE,103,0.0,0.0,81,0.00,,---,0.00,0.00,VWS V14.00,2013-11-15 05:41:00,
2013-11-14 23:46:00,43.5,38.1,30.14,ESE,103,0.0,1.0,81,0.00,,---,0.00,0.00,VWS V14.00,2013-11-15 05:46:00,
2013-11-14 23:51:00,43.3,38.2,30.14,ESE,103,0.0,0.0,82,0.00,,---,0.00,0.00,VWS V14.00,2013-11-15 05:51:00,
2013-11-14 23:56:00,43.2,38.1,30.14,ESE,103,0.0,0.0,82,0.00,,---,0.00,0.00,VWS V14.00,2013-11-15 05:56:00,